User: anonymous   Login
Location: Unspecified
(0.0000°N, 0.0000°E)
Time: 06:22:45
(UTC+00:00)
Language:

UWE-3 - Orbit

View from above orbital plane
View from above orbital plane
View from above satellite
View from above satellite

Ground track
Ground track

The orbit data is extracted from the following two-line orbital elements,

1 39446U 13066AG  18116.58259325 +.00000232 +00000-0 +37633-4 0  9991
2 39446 097.5968 141.0392 0069754 345.3739 014.5453 14.78183992236901
Epoch (UTC): 26 April 2018 13:58:56
Eccentricity: 0.0069754
inclination: 97.5968°
perigee height: 586 km
apogee height: 684 km
right ascension of ascending node: 141.0392°
argument of perigee: 345.3739°
revolutions per day: 14.78183992
mean anomaly at epoch: 14.5453°
orbit number at epoch: 23690

The dashed part of the orbit path shows where the satellite is in the earth's shadow,  

DLR